CZ-6A DEB

Satellite information

Favourite Embed

Satellite Type and Status

DEBRISIN ORBIT

Key statistics

Satellite CZ-6A DEB at a glance.

Uptime

58

Days in orbit

Revolutions

≈ 14.3

Per day

Orbit

LEO

Low Earth Orbit

Inclination

86.0

Latest

Satellite identification and parameters

Extended collection of information and parameters for CZ-6A DEB.

Object identification

Identified? True

Debris? True

Object name: CZ-6A DEB

International designator: 2025-096F

Object number (NORAD): 63923

Object ID (CCSDS): 63923

Country: PEOPLES REPUBLIC OF CHINA (PRC)

Current information (Y/N): Y

RCS size: LARGE

Orbital parameters

Period: 100.912 minutes

Inclination: 85.9936 deg

SMA: 7179.952 km

Apoapsis: 812.154 km

Periapsis: 791.479 km

RAAN: 341.7853 deg

Eccentricy: 0.0014398

Argument of periapsis: 89.6745 deg

Mean anomaly: 270.6096 deg

Mean motion: 14.26988529 rev/day

Mean motion (dot): 0.00000271 rev/day2

B* drag term: 0.00010342 1/REarth

Two-line elements (TLE)

Creation date: July 8, 2025, 2:27 a.m.

Reference frame: TEME

Reference center: EARTH

Epoch: July 7, 2025, 9:32 p.m. UTC

TLE line 0: 0 CZ-6A DEB

TLE line 1: 1 63923U 25096F 25188.89729969 .00000271 00000-0 10342-3 0 9991

TLE line 2: 2 63923 85.9936 341.7853 0014398 89.6745 270.6096 14.26988529 8046

Live tracking on map

Real-time ground track for satellite CZ-6A DEB.

In-orbit conjunctions

A list of the most updated potential collisions computed for object CZ-6A DEB.

Target Orbit TCA Probability of collision Miss distance Type
DMSP 5D-2 F13 DEB SSO 2025-06-14 16:28:29 0.0002350057 133.0 (m) DEBRIS

Associated space launch

3 Chinese reconnaissance satellites of unknown purposes, officially reported as for "Electromagnetic environment probing".

CZ-6A DEB was lifted into orbit during the mission ‘Long March 6A | Yaogan 40 Group 02’, on board a Long March 6A space rocket.

The launch took place on May 11, 2025, 1:27 p.m. from Launch Complex 9A.

For more information about the launch, click the button.

Launch to space Long March 6A | Yaogan 40 Group 02
Long March 6A | Yaogan 40 Group 02

Agency: N/A

Status: Launch Successful

Launch date: May 11, 2025, 1:27 p.m. UTC

Rocket: Long March 6A

Launch pad: Launch Complex 9A

Location: Taiyuan Satellite Launch Center, People's Republic of China

...

Latest news about this satellite

News about space launch
China adds to classified TJS, Yaogan satellite series with two launches

China has added new spacecraft to two separate classified satellite series with a pair of launches across Sunday and Monday. The post China adds to classified TJS, Yaogan satellite series with two launches appeared first on SpaceNews.


Newsletter sign-up

Weekly statistics, charts and insights to help you stay on top of the space industry.